Weather History for Alexandria Esle, LA

Change the Weather History Date:

Thursday, September 13, 2012

  Actual Average Record
Temperature  
Mean Temperature 78 °F -  
Max Temperature 90 °F 88 °F 100 °F (2013)
Min Temperature 66 °F 67 °F 51 °F (1964)
Cooling Degree Days 12    
Growing Degree Days 28 (Base 50)    
Moisture  
Dew Point 68 °F    
Average Humidity 81    
Maximum Humidity 94    
Minimum Humidity 46    
Precipitation  
Precipitation 0.00 in - - ()
Sea Level Pressure  
Sea Level Pressure 30.11 in    
Wind  
Wind Speed 1 mph (ESE)    
Max Wind Speed 8 mph    
Max Gust Speed -    
Visibility 6 miles    
Events Fog , Thunderstorm    
Averages and records for this station are not official NWS values.
T = Trace of Precipitation, MM = Missing Value Source: NWS Daily Summary

Daily Weather History Graph

Daily Weather History Graph

Search for Another Location

Airport:

Trip Planner

Search our weather history database for the weather conditions in past years. The results will help you decide how hot, cold, wet, or windy it might be!

Date:

Astronomy

Sep. 13, 2012 Rise Set
Actual Time 6:52 AM CDT 7:16 PM CDT
Civil Twilight 6:28 AM CDT 7:41 PM CDT
Nautical Twilight 5:59 AM CDT 8:09 PM CDT
Astronomical Twilight 5:30 AM CDT 8:38 PM CDT
Moon 4:19 AM CDT (9/13) 5:34 PM CDT (9/13)
Length of Visible Light 13h 13m
Length of Day
12h 24m
Waning Crescent, 7% of the Moon is Illuminated
Sep 13
Waning Crescent
Sep 15
New
Sep 22
First Quarter
Sep 29
Full
Oct 8
Last Quarter

Hourly Weather History & Observations

Time (CDT) Temp. Heat Index Dew Point Humidity Pressure Visibility Wind Dir Wind Speed Gust Speed Precip Events Conditions
12:53 AM 70.0 °F - 68.0 °F 93% 30.11 in 8.0 mi Calm Calm - N/A   Clear
1:53 AM 70.0 °F - 66.9 °F 90% 30.11 in 7.0 mi Calm Calm - N/A   Clear
2:53 AM 69.1 °F - 66.9 °F 93% 30.10 in 6.0 mi Calm Calm - N/A   Clear
3:18 AM 69.8 °F - 66.2 °F 88% 30.10 in 1.8 mi Calm Calm - N/A   Partly Cloudy
3:30 AM 69.8 °F - 66.2 °F 88% 30.10 in 3.0 mi Calm Calm - N/A   Clear
3:45 AM 69.8 °F - 66.2 °F 88% 30.10 in 2.0 mi Calm Calm - N/A   Clear
3:53 AM 68.0 °F - 66.0 °F 93% 30.09 in 4.0 mi Calm Calm - N/A   Clear
4:25 AM 68.0 °F - 66.2 °F 94% 30.10 in 1.8 mi Calm Calm - N/A   Clear
4:39 AM 68.0 °F - 66.2 °F 94% 30.10 in 3.0 mi Calm Calm - N/A   Partly Cloudy
4:48 AM 68.0 °F - 66.2 °F 94% 30.10 in 2.0 mi Calm Calm - N/A   Partly Cloudy
4:53 AM 68.0 °F - 66.0 °F 93% 30.10 in 1.8 mi Calm Calm - N/A   Partly Cloudy
4:58 AM 68.0 °F - 66.2 °F 94% 30.10 in 3.0 mi Calm Calm - N/A   Partly Cloudy
5:33 AM 66.2 °F - 64.4 °F 94% 30.11 in 5.0 mi Calm Calm - N/A   Mostly Cloudy
5:53 AM 68.0 °F - 66.0 °F 93% 30.11 in 4.0 mi Calm Calm - N/A   Overcast
5:56 AM 68.0 °F - 66.2 °F 94% 30.11 in 1.8 mi Calm Calm - N/A   Overcast
6:00 AM 68.0 °F - 66.2 °F 94% 30.11 in 0.8 mi Calm Calm - N/A   Mist
6:15 AM 68.0 °F - 66.2 °F 94% 30.12 in 2.5 mi Calm Calm - N/A   Overcast
6:27 AM 68.0 °F - 66.2 °F 94% 30.12 in 0.8 mi Calm Calm - N/A   Mist
6:39 AM 68.0 °F - 66.2 °F 94% 30.13 in 0.2 mi Calm Calm - N/A Fog Fog
6:53 AM 68.0 °F - 66.0 °F 93% 30.13 in 0.2 mi Calm Calm - N/A Fog Fog
7:53 AM 71.1 °F - 69.1 °F 93% 30.13 in 0.2 mi Calm Calm - N/A Fog Fog
8:01 AM 71.6 °F - 69.8 °F 94% 30.14 in 1.0 mi Calm Calm - N/A   Mist
8:08 AM 71.6 °F - 69.8 °F 94% 30.14 in 1.8 mi Calm Calm - N/A   Overcast
8:19 AM 71.6 °F - 69.8 °F 94% 30.14 in 3.0 mi Calm Calm - N/A   Overcast
8:53 AM 73.9 °F - 72.0 °F 93% 30.14 in 9.0 mi East 3.5 mph - N/A   Mostly Cloudy
9:00 AM 75.2 °F - 71.6 °F 89% 30.14 in 10.0 mi Variable 3.5 mph - N/A   Scattered Clouds
9:53 AM 82.0 °F 87.4 °F 73.0 °F 74% 30.14 in 10.0 mi ESE 5.8 mph - N/A   Partly Cloudy
10:53 AM 82.9 °F 87.5 °F 71.1 °F 67% 30.14 in 10.0 mi Variable 4.6 mph - N/A   Partly Cloudy
11:15 AM 84.2 °F 89.6 °F 71.6 °F 66% 30.15 in 10.0 mi Variable 5.8 mph - N/A   Mostly Cloudy
11:29 AM 84.2 °F 88.4 °F 69.8 °F 62% 30.15 in 10.0 mi SSE 5.8 mph - N/A   Mostly Cloudy
11:53 AM 86.0 °F 90.7 °F 70.0 °F 59% 30.14 in 10.0 mi Variable 3.5 mph - N/A   Scattered Clouds
12:53 PM 88.0 °F 92.9 °F 70.0 °F 55% 30.14 in 10.0 mi ENE 4.6 mph - N/A   Mostly Cloudy
1:53 PM 88.0 °F 92.9 °F 70.0 °F 55% 30.11 in 10.0 mi ENE 4.6 mph - N/A   Clear
2:53 PM 89.1 °F 91.3 °F 66.0 °F 46% 30.06 in 10.0 mi ESE 8.1 mph - N/A   Clear
3:53 PM 89.1 °F 93.7 °F 69.1 °F 52% 30.05 in 10.0 mi ESE 4.6 mph - N/A   Clear
4:53 PM 89.1 °F 92.9 °F 68.0 °F 50% 30.04 in 10.0 mi East 6.9 mph - N/A   Clear
5:53 PM 89.1 °F 94.1 °F 70.0 °F 53% 30.06 in 10.0 mi ESE 4.6 mph - N/A   Clear
6:53 PM 81.0 °F 85.2 °F 72.0 °F 74% 30.07 in 10.0 mi NE 3.5 mph - N/A   Clear
7:53 PM 81.0 °F 84.1 °F 69.1 °F 67% 30.10 in 10.0 mi SSE 5.8 mph - N/A   Overcast
8:16 PM 80.6 °F 83.2 °F 68.0 °F 65% 30.10 in 10.0 mi South 4.6 mph - N/A Thunderstorm Overcast
8:45 PM 78.8 °F - 66.2 °F 65% 30.12 in 10.0 mi SSE 6.9 mph - N/A   Overcast
8:53 PM 78.1 °F - 66.9 °F 68% 30.12 in 10.0 mi South 4.6 mph - N/A   Overcast
9:53 PM 75.9 °F - 69.1 °F 79% 30.15 in 10.0 mi Calm Calm - N/A   Overcast
10:53 PM 75.9 °F - 70.0 °F 82% 30.16 in 10.0 mi Calm Calm - N/A   Scattered Clouds
11:53 PM 75.0 °F - 71.1 °F 87% 30.15 in 9.0 mi Calm Calm - N/A   Clear